• In Hungary
  • List of Countries
  • For 7 days
  • Water Temperature
  • Satellite Maps
  • Weather Map
  • News
  • Weather Widgets
  • user-avatar
    Login

    Hourly Weather Rimsko-Korsakovka

    Today, 22 August, Wednesday

    Time Temperature Precipitation Wind Pressure Humidity
    00:00 +21°C° 0 mm 4 mps 749 mmHg 43%
    01:00 +21°C° 0 mm 4 mps 749 mmHg 42%
    02:00 +20°C° 0 mm 4 mps 748 mmHg 41%
    03:00 +19°C° 0 mm 3 mps 748 mmHg 41%
    04:00 +19°C° 0 mm 4 mps 748 mmHg 41%
    05:00 +20°C° 0 mm 4 mps 748 mmHg 41%
    06:00 +20°C° 0 mm 5 mps 747 mmHg 40%
    07:00 +22°C° 0 mm 6 mps 747 mmHg 36%
    08:00 +24°C° 0 mm 7 mps 747 mmHg 32%
    09:00 +28°C° 0 mm 8 mps 747 mmHg 28%
    10:00 +29°C° 0 mm 8 mps 747 mmHg 27%
    11:00 +31°C° 0 mm 8 mps 747 mmHg 25%
    12:00 +31°C° 0 mm 9 mps 747 mmHg 24%
    13:00 +29°C° 0.1 mm 8 mps 746 mmHg 32%
    14:00 +28°C° 0.1 mm 8 mps 746 mmHg 40%
    15:00 +26°C° 0.1 mm 7 mps 746 mmHg 48%
    16:00 +23°C° 0.9 mm 7 mps 746 mmHg 58%
    17:00 +21°C° 0.9 mm 6 mps 746 mmHg 69%
    18:00 +19°C° 0.9 mm 5 mps 746 mmHg 79%
    19:00 +19°C° 0.4 mm 5 mps 747 mmHg 77%
    20:00 +18°C° 0.4 mm 4 mps 747 mmHg 75%
    21:00 +18°C° 0.4 mm 4 mps 748 mmHg 73%
    22:00 +17°C° 0 mm 4 mps 748 mmHg 73%
    23:00 +15°C° 0 mm 4 mps 749 mmHg 73%

    Tomorrow, 23 August, Thursday

    Time Temperature Precipitation Wind Pressure Humidity
    00:00 +14°C° 0 mm 4 mps 749 mmHg 74%
    01:00 +14°C° 0 mm 4 mps 750 mmHg 76%
    02:00 +13°C° 0 mm 4 mps 750 mmHg 78%
    03:00 +12°C° 0 mm 4 mps 750 mmHg 81%
    04:00 +12°C° 0 mm 4 mps 751 mmHg 80%
    05:00 +12°C° 0 mm 5 mps 751 mmHg 80%
    06:00 +12°C° 0 mm 5 mps 752 mmHg 79%
    07:00 +14°C° 0 mm 5 mps 752 mmHg 71%
    08:00 +15°C° 0 mm 5 mps 752 mmHg 63%
    09:00 +17°C° 0 mm 5 mps 753 mmHg 56%
    10:00 +19°C° 0 mm 6 mps 753 mmHg 51%
    11:00 +20°C° 0 mm 6 mps 753 mmHg 47%
    12:00 +21°C° 0 mm 6 mps 753 mmHg 42%
    13:00 +21°C° 0 mm 6 mps 753 mmHg 40%
    14:00 +22°C° 0 mm 6 mps 753 mmHg 39%
    15:00 +22°C° 0 mm 6 mps 753 mmHg 38%
    16:00 +21°C° 0 mm 5 mps 753 mmHg 40%
    17:00 +20°C° 0 mm 4 mps 753 mmHg 43%
    18:00 +20°C° 0 mm 4 mps 753 mmHg 46%
    19:00 +18°C° 0 mm 3 mps 754 mmHg 50%
    20:00 +17°C° 0 mm 3 mps 754 mmHg 54%
    21:00 +16°C° 0 mm 3 mps 754 mmHg 58%
    22:00 +15°C° 0 mm 2 mps 755 mmHg 60%
    23:00 +15°C° 0 mm 2 mps 755 mmHg 61%

    Day after tomorrow, 24 August, Friday

    Time Temperature Precipitation Wind Pressure Humidity
    00:00 +14°C° 0 mm 2 mps 755 mmHg 63%
    01:00 +14°C° 0 mm 2 mps 755 mmHg 64%
    02:00 +14°C° 0 mm 2 mps 755 mmHg 65%
    03:00 +13°C° 0 mm 2 mps 755 mmHg 66%
    04:00 +14°C° 0 mm 2 mps 755 mmHg 66%
    05:00 +14°C° 0 mm 2 mps 755 mmHg 67%
    06:00 +14°C° 0 mm 2 mps 755 mmHg 67%
    07:00 +16°C° 0 mm 3 mps 755 mmHg 61%
    08:00 +18°C° 0 mm 3 mps 755 mmHg 54%
    09:00 +20°C° 0 mm 3 mps 755 mmHg 47%
    10:00 +21°C° 0 mm 3 mps 755 mmHg 43%
    11:00 +22°C° 0 mm 4 mps 755 mmHg 38%
    12:00 +23°C° 0 mm 4 mps 755 mmHg 34%
    13:00 +25°C° 0 mm 4 mps 754 mmHg 33%
    14:00 +25°C° 0 mm 4 mps 754 mmHg 31%
    15:00 +26°C° 0 mm 4 mps 754 mmHg 30%
    16:00 +25°C° 0 mm 4 mps 754 mmHg 34%
    17:00 +24°C° 0 mm 3 mps 753 mmHg 37%
    18:00 +23°C° 0 mm 2 mps 753 mmHg 40%
    19:00 +21°C° 0 mm 2 mps 753 mmHg 44%
    20:00 +20°C° 0 mm 2 mps 753 mmHg 48%
    21:00 +18°C° 0 mm 2 mps 753 mmHg 51%
    22:00 +18°C° 0 mm 2 mps 753 mmHg 54%
    23:00 +17°C° 0 mm 2 mps 753 mmHg 58%

    25 August, Saturday

    Time Temperature Precipitation Wind Pressure Humidity
    00:00 +17°C° 0 mm 2 mps 753 mmHg 61%
    01:00 +16°C° 0 mm 2 mps 753 mmHg 63%
    02:00 +16°C° 0 mm 2 mps 753 mmHg 65%
    03:00 +15°C° 0 mm 2 mps 753 mmHg 68%
    04:00 +15°C° 0 mm 2 mps 753 mmHg 68%
    05:00 +15°C° 0 mm 2 mps 753 mmHg 69%
    06:00 +14°C° 0 mm 3 mps 753 mmHg 69%
    07:00 +17°C° 0 mm 3 mps 753 mmHg 62%
    08:00 +19°C° 0 mm 3 mps 753 mmHg 56%
    09:00 +22°C° 0 mm 4 mps 753 mmHg 49%
    10:00 +23°C° 0 mm 4 mps 752 mmHg 46%
    11:00 +25°C° 0 mm 4 mps 752 mmHg 42%
    12:00 +26°C° 0 mm 4 mps 752 mmHg 39%
    13:00 +27°C° 0 mm 4 mps 752 mmHg 39%
    14:00 +27°C° 0 mm 4 mps 751 mmHg 39%
    15:00 +28°C° 0 mm 5 mps 751 mmHg 38%
    16:00 +27°C° 0 mm 4 mps 751 mmHg 43%
    17:00 +26°C° 0 mm 4 mps 751 mmHg 48%
    18:00 +25°C° 0 mm 3 mps 751 mmHg 53%
    19:00 +24°C° 0 mm 3 mps 751 mmHg 56%
    20:00 +21°C° 0 mm 3 mps 751 mmHg 59%
    21:00 +20°C° 0 mm 4 mps 752 mmHg 63%
    22:00 +19°C° 0 mm 3 mps 752 mmHg 64%
    23:00 +18°C° 0 mm 3 mps 752 mmHg 66%

    26 August, Sunday

    Time Temperature Precipitation Wind Pressure Humidity
    00:00 +17°C° 0 mm 3 mps 752 mmHg 67%
    01:00 +16°C° 0 mm 3 mps 752 mmHg 71%
    02:00 +16°C° 0 mm 3 mps 752 mmHg 74%
    03:00 +15°C° 0 mm 2 mps 752 mmHg 77%
    04:00 +14°C° 0 mm 3 mps 752 mmHg 78%
    05:00 +14°C° 0 mm 3 mps 753 mmHg 79%
    06:00 +14°C° 0 mm 3 mps 753 mmHg 79%
    07:00 +17°C° 0 mm 3 mps 753 mmHg 71%
    08:00 +18°C° 0 mm 3 mps 753 mmHg 63%
    09:00 +20°C° 0 mm 4 mps 753 mmHg 54%
    10:00 +21°C° 0 mm 4 mps 753 mmHg 49%
    11:00 +22°C° 0 mm 3 mps 753 mmHg 44%
    12:00 +24°C° 0 mm 3 mps 753 mmHg 39%
    13:00 +25°C° 0 mm 3 mps 752 mmHg 37%
    14:00 +25°C° 0 mm 3 mps 752 mmHg 36%
    15:00 +26°C° 0 mm 4 mps 752 mmHg 35%
    16:00 +25°C° 0 mm 3 mps 752 mmHg 39%
    17:00 +24°C° 0 mm 3 mps 752 mmHg 43%
    18:00 +22°C° 0 mm 3 mps 752 mmHg 47%
    19:00 +21°C° 0 mm 3 mps 752 mmHg 52%
    20:00 +20°C° 0 mm 3 mps 752 mmHg 57%
    21:00 +18°C° 0 mm 3 mps 752 mmHg 61%
    22:00 +18°C° 0 mm 3 mps 752 mmHg 65%
    23:00 +17°C° 0 mm 3 mps 752 mmHg 68%

    27 August, Monday

    Time Temperature Precipitation Wind Pressure Humidity
    00:00 +17°C° 0 mm 3 mps 752 mmHg 72%
    01:00 +16°C° 0 mm 3 mps 752 mmHg 75%
    02:00 +16°C° 0 mm 3 mps 752 mmHg 77%
    03:00 +16°C° 0 mm 3 mps 752 mmHg 80%
    04:00 +16°C° 0 mm 3 mps 752 mmHg 81%
    05:00 +16°C° 0 mm 3 mps 753 mmHg 82%
    06:00 +16°C° 0 mm 3 mps 753 mmHg 83%
    07:00 +18°C° 0 mm 3 mps 753 mmHg 75%
    08:00 +20°C° 0 mm 4 mps 753 mmHg 68%
    09:00 +21°C° 0 mm 4 mps 753 mmHg 61%
    10:00 +23°C° 0 mm 4 mps 753 mmHg 56%
    11:00 +25°C° 0 mm 4 mps 752 mmHg 52%
    12:00 +26°C° 0 mm 4 mps 752 mmHg 47%
    13:00 +26°C° 0 mm 4 mps 752 mmHg 47%
    14:00 +26°C° 0 mm 4 mps 752 mmHg 46%
    15:00 +26°C° 0 mm 4 mps 752 mmHg 45%
    16:00 +25°C° 0 mm 4 mps 752 mmHg 48%
    17:00 +25°C° 0 mm 3 mps 752 mmHg 51%
    18:00 +24°C° 0 mm 3 mps 752 mmHg 53%
    19:00 +22°C° 0 mm 3 mps 752 mmHg 58%
    20:00 +20°C° 0 mm 3 mps 752 mmHg 62%
    21:00 +19°C° 0 mm 3 mps 752 mmHg 67%
    22:00 +19°C° 0 mm 3 mps 752 mmHg 70%
    23:00 +18°C° 0 mm 3 mps 752 mmHg 72%
    Show more